Location: M?digepalle
(16.1753°N, 80.3496°E)
Time: 08:48:19
(UTC+00:00)

Aureole 3 Rocket - Pass Details

Date: 29 October 2020
Orbit: 399 x 1739 km, 82.5° (Epoch: 28 November)

Event Time Altitude Azimuth Distance (km) Brightness Sun altitude
Rises 12:38:24 0° 199° (SSW) 2,332 6.5 -7.6°
Reaches altitude 10° 12:40:20 10° 208° (SSW) 1,526 5.7 -8.0°
Maximum altitude 12:43:21 38° 278° (W) 750 4.2 -8.7°
Drops below altitude 10° 12:47:05 10° 348° (NNW) 1,882 5.6 -9.6°
Sets 12:49:42 0° 356° (N) 2,978 6.5 -10.2°
